Погода в Сортавале

Хотите узнать прогноз погоды в Сортавале? Тогда Вам сюда: Погода в Сортавале

Поиск расширенной информации на нашем сайте:

Полезная информация:

Новости сайта



14.11.2019
Обновлён Долгосрочный прогноз погоды по России и другим странам хСССР на ноябрь-декабрь 2019 года.
Опубликованы прогностические карты: Предварительный прогноз на декабрь 2019 года, Предварительный прогноз на январь 2020 года, Предварительная схема синоптических процессов на декабрь 2019 г..

11.11.2019
Обновлены Долгосрочный прогноз погоды по России и другим странам хСССР на ноябрь-декабрь 2019 года и Предварительный прогноз на зиму 2019/2020 годов

04.11.2019
Опубликован Долгосрочный прогноз погоды по России и другим странам хСССР на ноябрь 2019 года
Сравнение прогнозируемой аномалии приземной температуры воздуха на ноябрь 2019 года по разным моделям
Предварительный прогноз на зиму 2019/2020 года




Погода в Сортавале - сегодня

Время (UTC), дата Ветер
(°,м/с) 
Видим.   Явления Облачность Т
(°С)
Тd
(°С)
f(%) Тe
(°С)
Pmin
(гПа)
dP
(гПа)
Po
(мм)
O2
(г/м3)
Тmin Tmax R s Состояние
почвы
00 20.11.19 150 (ЮВ) 6000 м  слаб. морось{ливн. осадки}  10/10 300 м 
[St]
+5.2 +4.3 94 +4  1030.9  0.5  771  304           
03 20.11.19 180 (Ю) 28000 м  {морось}  10/10 500 м кучево-дожд. 
[Cb cap]
+4.4 +2.9 90 +3  1031.6  0.7  772  306  +4.4       
06 20.11.19 170 (Ю) 6{10}  25000 м  {морось}  10/10 570 м кучево-дожд. 
[Cb cap]
+3.7 +1.6 86 +1  1032.5  0.9  773  307  +3.6       
09 20.11.19 170 (Ю) 8000 м  слаб. морось  10/10 400 м 
[St]
+2.6 +0.8 88 +1  1033.9  1.4  774  309           
12 20.11.19 170 (Ю) 20000 м  {морось}  10/10 500 м 
[Sc]
+2.9 +1.1 88 +2  1034.8  0.9  774  309           
15 20.11.19 180 (Ю) 50000 м    10/10 500 м 
[Sc]
+3.2 +1.6 89 +3  1035.8  775  308      0.0     
18 20.11.19 170 (Ю) 50000 м    10/10 270 м 
[St]
+3.4 +1.9 90 +3  1036.3  0.5  775  308    +3.5  0.0     
21 20.11.19 190 (Ю) 50000 м    10/10 240 м 
[St]
+3.7 +2.2 90 +5  1037  0.7  776  308           
00 21.11.19 180 (Ю) 23000 м    10/10 270 м 
[St]
+3.7 +2.2 90 +5  1037.3  0.3  776  308           
03 21.11.19 190 (Ю) 30000 м    10/10 400 м 
[St]
+3.7 +1.9 88 +5  1037.5  0.2  776  308  +3.1         
06 21.11.19 180 (Ю) 40000 м    10/10 450 м 
[St]
+3.7 +1.7 87 +3  1037.8  0.3  777  309  +3.4         
09 21.11.19 200 (Ю) 40000 м    10/10 660 м 
[Sc]
+3.4 +0.8 83 +3  1038.2  0.4  777  309           
12 21.11.19 200 (Ю) 40000 м    10/10 700 м 
[Sc]
+4.2 +0.8 79 +4  1037.6  -0.6  776  308           
15 21.11.19 170 (Ю) 30000 м    10/10 630 м 
[Sc]
+4.6 +2.5 86 +3  1037.2  -0.4  776  307           
18 21.11.19 180 (Ю) 50000 м    10/10 870 м 
[Sc]
+4.3 +1.8 84 +4  1036.8  -0.4  776  308    +4.7       
21 21.11.19 190 (Ю) 50000 м    10/10 1170 м 
[Sc]
+3.9 +0.7 80 +3  1036.5  -0.3  776  308           
00 22.11.19 180 (Ю) 50000 м    9/9 1170 м 
[Sc]
+2.6 -1.6 74 +2  1036  -0.5  775  310           
03 22.11.19 160 (Ю) 50000 м    8/0 средняя 
[Ac trans]
+1.1 -1.2 85 1035.6  -0.4  775  311  +0.7         
06 22.11.19 170 (Ю) 50000 м    9/9 700 м 
[Sc]
+1 -1.7 82 -1  1035.5  -0.1  775  311  +0.4         
09 22.11.19 170 (Ю) 20000 м    10/10 500 м 
[Sc]
-0.3 -3.1 81 -2  1035.8  0.3  775  313           
12 22.11.19 180 (Ю) 20000 м    10/10 570 м 
[Sc]
-0.7 -3.9 79 -3  1034.8  -1  774  313           
15 22.11.19 160 (Ю) 50000 м    10/10 600 м 
[Sc]
-0.8 -4.3 77 -3  1034.3  -0.5  774  313           
18 22.11.19 170 (Ю) 30000 м    10/10 600 м 
[Sc]
-1.6 -5.3 76 -4  1034.3  774  314    +1       
21 22.11.19 170 (Ю) 30000 м    10/10 600 м 
[Sc]
-2 -5.5 77 -3  1034.4  0.1  774  315           
00 23.11.19 180 (Ю) 30000 м    10/10 570 м 
[Sc]
-2 -4.8 81 -4  1034  -0.4  774  315           
Время (UTC), дата Ветер
(°,м/с) 
Видим.   Явления Облачность Т
(°С)
Тd
(°С)
f(%) Тe
(°С)
Pmin
(гПа)
dP
(гПа)
Po
(мм)
O2
(г/м3)
Тmin Tmax R s Состояние
почвы

Для получения пояснительной информации подведите курсор к названию столбца.

ПОГОДА в Сортавале - архив

Всё, что Вы хотите узнать о погоде в Сортавале - удобно и подробно!

Выберите нужную дату (начиная с 1 января 2019* года) и нажмите кнопку "Найти".
Будут отображены архивные сводки погоды по пункту Сортавала, начиная с указанной даты.


Отображать данные в формате CSV (для использования в таблицах Excel)


Внимание! Наш архив погоды предназначен исключительно для личного некоммерческого использования в познавательных целях. Если Вам необходимы официальные справки о состоянии погоды (для производственных, юридических, коммерческих и т.п. целей), обращайтесь в органы Росгидромета.

*Примечание: данная дата относится к архиву по метеостанциям СССР (Россия, СНГ, Балтия).
Архив по метеостанциям Зарубежной Европы и Азии (кроме Китая) хранится 10 дней, по другим регионам земного шара (Китай, Африка, Америка, Австралия, Океания) - 1 день.

Сортавала - район местоположения метеостанции


Название, широта, долгота, высота метеостанции:
Сортавала 61.7°ш. 30.7°д. 19 м над ур. моря [Российская Федерация]

Дополнительная информация

В oтличие oт бoльшинства пoгoдных сайтoв мы публикуем пoдрoбную метеoинфoрмацию в детальнoм прoфессиoнальнoм фoрмате.

Характеристики температуры и влажнoсти вoздуха измеряются на высoте 2 м в тени вдали oт зданий и деревьев.
Скoрoсть ветра измеряется на высoте 10 м (на урoвне рoста челoвека скoрoсть ветра ниже в 1.5-2 раза). Если метеoстанция нахoдится в гoрoде или в лесу, тo скoрoсть ветра занижена на 2-4 м/с пo сравнению с oткрытым местoм. Скoрoсть ветра над акватoриями крупных рек и oзёр, а также на вершинах хoлмoв на 2-5 м/с выше, чем в oбычных услoвиях.
Атмoсфернoе давление в разных тoчках местнoсти мoжет значительнo oтличаться oт давления на метеoстанции, в зависимoсти oт услoвий рельефа (при пoдъёме на 10 м давление пoнижается примернo на 1 мм рт.ст.).